Regional Weather Roundup
Issued by NWS Little Rock, AR

Home | Current Version | Previous Version | Graphics & Text | Print | Product List | Glossary On
Versions: 1 2 3 4 5 6 7 8 9 10 11 12 13 14 15 16 17 18 19 20 21 22 23 24 25 26 27 28 29 30 31 32 33 34 35 36 37 38 39 40 41 42 43 44 45 46 47 48 49 50
373
ASUS44 KLZK 231905
RWRLZK

WEATHER ROUNDUP FOR ARKANSAS
NATIONAL WEATHER SERVICE LITTLE ROCK AR
200 PM CDT TUE MAY 23 2017

NOTE: "FAIR" INDICATES FEW OR NO CLOUDS BELOW 12,000 FEET WITH NO
SIGNIFICANT WEATHER AND/OR OBSTRUCTIONS TO VISIBILITY.

ARZ001-003-010-029-232000-
NORTHWEST ARKANSAS

CITY           SKY/WX    TMP DP  RH WIND       PRES   REMARKS
FAYETTEVILLE   PTSUNNY   69  56  62 NW9       29.82F
FORT SMITH     PTSUNNY   74  53  48 W7        29.80F
HARRISON       CLOUDY    67  55  65 NW12G17   29.79F
BENTONVILLE    PTSUNNY   64  54  68 NW12      29.84F
ROGERS         CLOUDY    66  55  67 W12       29.83F
SILOAM SPGS    CLOUDY    64  52  63 NW13      29.84F
HIGHFILL       CLOUDY    66  55  67 NW12      29.84F
SPRINGDALE     PTSUNNY   66  54  63 NW14G22   29.84F
$$

ARZ004-005-016-232000-
NORTH CENTRAL ARKANSAS

CITY           SKY/WX    TMP DP  RH WIND       PRES   REMARKS
BATESVILLE     MOSUNNY   73  57  56 NW7       29.75F
FLIPPIN        PTSUNNY   73  54  49 NW8       29.74F
MTN HOME       LGT RAIN  69  56  62 VRB3      29.76F
$$

ARZ040-041-232000-
WEST CENTRAL ARKANSAS

CITY           SKY/WX    TMP DP  RH WIND       PRES   REMARKS
MENA           MOSUNNY   75  57  53 W13       29.82F
MOUNT IDA      MOSUNNY   77  55  46 VRB6      29.77F
$$

ARZ009-017-025-026-028-232000-
NORTHEAST ARKANSAS

CITY           SKY/WX    TMP DP  RH WIND       PRES   REMARKS
JONESBORO      PTSUNNY   78  54  43 N8        29.73F
NEWPORT        CLOUDY    74  59  59 W12       29.74F
WALNUT RIDGE   MOSUNNY   72  57  60 CALM      29.74F
BLYTHEVILLE    PTSUNNY   75  54  47 W8        29.73F
NW BLYTHEVILLE PTSUNNY   77  55  47 W5        29.73F
$$

ARZ022-023-033-042-044-232000-
CENTRAL ARKANSAS

CITY           SKY/WX    TMP DP  RH WIND       PRES   REMARKS
LITTLE ROCK    PTSUNNY   75  58  55 N9        29.76F
N LITTLE ROCK    N/A     74  60  59 W6        29.76F
CONWAY           N/A     79  55  44 VRB7G18   29.74F
SEARCY         LGT RAIN  68  64  87 W6        29.78S
HOT SPRINGS    MOSUNNY   76  59  55 VRB7      29.79F
RUSSELLVILLE   MOSUNNY   76  56  49 W14G21    29.76F
CLINTON        FAIR      77  55  47 NW8       29.75F
$$

ARZ036-232000-
EAST ARKANSAS

CITY           SKY/WX    TMP DP  RH WIND       PRES   REMARKS
WEST MEMPHIS   MOSUNNY   75  54  47 SW3       29.73F
$$

ARZ050-053-066-070-073-232000-
SOUTHWEST ARKANSAS

CITY           SKY/WX    TMP DP  RH WIND       PRES   REMARKS
ARKADELPHIA      N/A     77  62  59 W9        29.78F
CAMDEN         PTSUNNY   77  57  50 W6        29.79F
TEXARKANA      CLOUDY    74  60  61 W9        29.81F
EL DORADO      CLOUDY    75  60  59 NW8       29.80F
DE QUEEN       MOSUNNY   75  59  57 NW10      29.79F
$$

ARZ056-057-069-232000-
SOUTHEAST ARKANSAS

CITY           SKY/WX    TMP DP  RH WIND       PRES   REMARKS
PINE BLUFF     MOSUNNY   75  58  55 N6        29.77F
STUTTGART      PTSUNNY   75  54  46 NW7       29.77F
MONTICELLO     PTSUNNY   76  60  57 NW6       29.77F

$$






USA.gov is the U.S. government's official web portal to all federal, state and local government web resources and services.